Terminal Aerodrome Forecast
Issued by NWS

Home | Current Version | Previous Version | Text Only | Print | Product List | Glossary On
Versions: 1 2 3 4 5 6 7 8 9 10 11 12 13 14 15 16 17
000
FTUS43 KIND 250500
TAFBMG
TAF
KBMG 250520Z 2506/2606 21003KT P6SM SCT035 BKN250
     FM250900 21003KT 5SM BR BKN020
     FM251600 27006KT P6SM SCT030 BKN250
     FM251900 27009KT P6SM SCT100
     FM252300 30003KT P6SM SCT100
      AMD LTD TO CLD VIS AND WIND TIL 251300=

USA.gov is the U.S. government's official web portal to all federal, state and local government web resources and services.